Athens, GA

4:16 PM EDT on May 22, 2018 (GMT -0400)
Athens / Epps

Weather History for KAHN - October, 2011

Change the Weather History Date:

Monday, October 17, 2011

  Actual Average Record
Temperature  
Mean Temperature 68 °F 62 °F  
Max Temperature 86 °F 74 °F 88 °F (1920)
Min Temperature 50 °F 51 °F 34 °F (1954)
Degree Days  
Heating Degree Days 0 4  
Month to date heating degree days 28 46  
Since 1 July heating degree days 30 56  
Cooling Degree Days 3 2  
Month to date cooling degree days 17 48  
Year to date cooling degree days 2208 1863  
Growing Degree Days 17 (Base 50)    
Moisture  
Dew Point 50 °F    
Average Humidity 58    
Maximum Humidity 86    
Minimum Humidity 29    
Precipitation  
Precipitation 0.00 in 0.11 in 2.71 in (1932)
Month to date precipitation 2.74 2.11  
Year to date precipitation 28.74 37.34  
Snow  
Snow 0.00 in 0.00 in 0.00 in (2002)
Month to date snowfall 0.0  
Since 1 July snowfall 0.0  
Since 1 September snowfall 0.0  
Snow Depth -    
Sea Level Pressure  
Sea Level Pressure 29.96 in    
Wind  
Wind Speed 3 mph (SW)    
Max Wind Speed 12 mph    
Max Gust Speed 17 mph    
Visibility 10 miles    
Events      
T = Trace of Precipitation, MM = Missing Value Source: NWS Daily Summary

Daily Weather History Graph

Daily Weather History Graph

Search for Another Location

Airport or City:

Astronomy

Oct. 17, 2011 Rise Set
Actual Time 7:39 AM EDT 6:57 PM EDT
Civil Twilight 7:14 AM EDT 7:22 PM EDT
Nautical Twilight 6:45 AM EDT 7:51 PM EDT
Astronomical Twilight 6:16 AM EDT 8:20 PM EDT
Moon 10:47 PM EDT (10/17) 12:33 PM EDT (10/17)
Length of Visible Light 12h 07m
Length of Day
11h 17m
Waning Gibbous, 74% of the Moon is Illuminated
Oct 17
Waning Gibbous
Oct 19
Last Quarter
Oct 26
New
Nov 2
First Quarter
Nov 10
Full

Hourly Weather History & Observations

Time (EDT) Temp. Dew Point Humidity Pressure Visibility Wind Dir Wind Speed Gust Speed Precip Events Conditions
12:51 AM 61.0 °F 48.0 °F 62% 30.04 in 10.0 mi SSW 3.5 mph - N/A   Clear
1:51 AM 61.0 °F 48.0 °F 62% 30.02 in 10.0 mi Calm Calm - N/A   Clear
2:51 AM 62.1 °F 48.0 °F 60% 30.01 in 10.0 mi Calm Calm - N/A   Clear
3:51 AM 55.9 °F 48.9 °F 77% 30.01 in 10.0 mi South 3.5 mph - N/A   Clear
4:51 AM 55.9 °F 48.9 °F 77% 29.99 in 10.0 mi SW 3.5 mph - N/A   Clear
5:51 AM 57.0 °F 48.0 °F 72% 30.00 in 10.0 mi Calm Calm - N/A   Clear
6:51 AM 55.0 °F 48.0 °F 77% 30.02 in 10.0 mi Calm Calm - N/A   Clear
7:51 AM 50.0 °F 46.9 °F 89% 30.03 in 10.0 mi Calm Calm - N/A   Clear
8:51 AM 57.0 °F 50.0 °F 77% 30.03 in 10.0 mi Calm Calm - N/A   Clear
9:51 AM 64.9 °F 51.1 °F 61% 30.03 in 10.0 mi SW 3.5 mph - N/A   Clear
10:51 AM 73.0 °F 52.0 °F 48% 30.02 in 10.0 mi WSW 3.5 mph - N/A   Clear
11:51 AM 80.1 °F 52.0 °F 38% 30.00 in 10.0 mi West 6.9 mph - N/A   Clear
12:51 PM 82.0 °F 50.0 °F 33% 29.98 in 10.0 mi West 6.9 mph - N/A   Clear
1:51 PM 82.4 °F 50.0 °F 32% 29.95 in 10.0 mi West 8.1 mph - N/A   Clear
2:51 PM 84.9 °F 50.0 °F 30% 29.91 in 10.0 mi Variable 5.8 mph - N/A   Clear
3:51 PM 84.9 °F 48.9 °F 29% 29.89 in 10.0 mi WNW 6.9 mph - N/A   Clear
4:51 PM 84.9 °F 48.0 °F 28% 29.88 in 10.0 mi SSW 6.9 mph - N/A   Clear
5:51 PM 82.0 °F 48.9 °F 31% 29.88 in 10.0 mi SW 4.6 mph - N/A   Clear
6:51 PM 75.9 °F 50.0 °F 40% 29.88 in 10.0 mi Calm Calm - N/A   Clear
7:51 PM 72.0 °F 51.1 °F 48% 29.89 in 10.0 mi SSW 3.5 mph - N/A   Clear
8:51 PM 68.0 °F 52.0 °F 56% 29.90 in 10.0 mi Calm Calm - N/A   Clear
9:51 PM 66.2 °F 51.8 °F 60% 29.91 in 10.0 mi Calm Calm - N/A   Clear
10:51 PM 62.1 °F 53.1 °F 72% 29.90 in 10.0 mi Calm Calm - N/A   Clear
11:51 PM 63.0 °F 53.1 °F 70% 29.88 in 10.0 mi Calm Calm - N/A   Clear